Rochester, Indiana, United States (46975)
Lat: 41.06N, Lon: 86.22W
Wx Zone: INZ015
Local Info
Past Weather Observations for Today

NOTE: This archive is for the closest National Weather Service station to Rochester. Information may differ from the station used for current weather conditions.

Click here for Long-term Archive

Time Weather Temperature Dewpoint Humidity Pressure Winds Precip Visibility
12:55
Overcast
61°F / 16°C 50°F / 10°C 68% 29.86 in
(1011 mb)
NW 20.7 mph
(NW 33 kph)
- 10SM
12:35
Overcast
61°F / 16°C 50°F / 10°C 68% 29.86 in
(1011 mb)
WNW 21.9 mph
(WNW 35 kph)
- 10SM
12:15
Overcast
63°F / 17°C 50°F / 10°C 64% 29.86 in
(1011 mb)
NW 20.7 mph
(NW 33 kph)
- 10SM
11:55
Overcast
61°F / 16°C 50°F / 10°C 68% 29.83 in
(1010 mb)
WNW 19.6 mph
(WNW 32 kph)
- 10SM
11:35
Overcast
61°F / 16°C 50°F / 10°C 68% 29.83 in
(1010 mb)
WNW 18.4 mph
(WNW 30 kph)
- 10SM
11:15
Overcast
61°F / 16°C 52°F / 11°C 72% 29.83 in
(1010 mb)
W 19.6 mph
(W 32 kph)
- 10SM
10:55
Overcast
61°F / 16°C 52°F / 11°C 72% 29.8 in
(1009 mb)
W 19.6 mph
(W 32 kph)
- 10SM
10:35
Overcast
61°F / 16°C 52°F / 11°C 72% 29.8 in
(1009 mb)
W 18.4 mph
(W 30 kph)
- 10SM
10:15
Mostly Cloudy
63°F / 17°C 52°F / 11°C 68% 29.8 in
(1009 mb)
W 17.3 mph
(W 28 kph)
- 10SM
09:55
Mostly Cloudy
61°F / 16°C 52°F / 11°C 72% 29.8 in
(1009 mb)
W 20.7 mph
(W 33 kph)
- 10SM
09:35
Mostly Cloudy
61°F / 16°C 52°F / 11°C 72% 29.8 in
(1009 mb)
W 18.4 mph
(W 30 kph)
- 10SM
09:15
Partly Cloudy
63°F / 17°C 54°F / 12°C 73% 29.8 in
(1009 mb)
SSW 15 mph
(SSW 24 kph)
- 10SM
08:55
Partly Cloudy
61°F / 16°C 54°F / 12°C 77% 29.8 in
(1009 mb)
W 13.8 mph
(W 22 kph)
- 10SM
08:35
Partly Cloudy
61°F / 16°C 54°F / 12°C 77% 29.8 in
(1009 mb)
W 13.8 mph
(W 22 kph)
- 10SM
08:15
Partly Cloudy
61°F / 16°C 55°F / 13°C 83% 29.8 in
(1009 mb)
W 15 mph
(W 24 kph)
- 10SM
07:55
Clear
61°F / 16°C 55°F / 13°C 83% 29.8 in
(1009 mb)
W 13.8 mph
(W 22 kph)
- 10SM
07:35
Partly Cloudy
61°F / 16°C 55°F / 13°C 83% 29.8 in
(1009 mb)
W 15 mph
(W 24 kph)
- 10SM
07:15
Partly Cloudy
59°F / 15°C 55°F / 13°C 88% 29.8 in
(1009 mb)
W 12.7 mph
(W 20 kph)
- 10SM
06:55
Partly Cloudy
61°F / 16°C 57°F / 14°C 88% 29.77 in
(1008 mb)
W 18.4 mph
(W 30 kph)
- 10SM
06:35
Mostly Cloudy
61°F / 16°C 57°F / 14°C 88% 29.77 in
(1008 mb)
W 16.1 mph
(W 26 kph)
- 10SM
06:15
Overcast
63°F / 17°C 59°F / 15°C 88% 29.77 in
(1008 mb)
W 15 mph
(W 24 kph)
- 10SM
05:55
Overcast
63°F / 17°C 59°F / 15°C 88% 29.74 in
(1007 mb)
W 11.5 mph
(W 19 kph)
- 10SM
05:35
Mostly Cloudy
63°F / 17°C 59°F / 15°C 88% 29.74 in
(1007 mb)
W 17.3 mph
(W 28 kph)
- 10SM
05:15
Overcast
63°F / 17°C 59°F / 15°C 88% 29.74 in
(1007 mb)
W 21.9 mph
(W 35 kph)
- 10SM
04:55
Overcast
64°F / 18°C 61°F / 16°C 88% 29.74 in
(1007 mb)
W 24.2 mph
(W 39 kph)
- 10SM
04:35
Mostly Cloudy
66°F / 19°C 64°F / 18°C 94% 29.74 in
(1007 mb)
W 13.8 mph
(W 22 kph)
- 10SM
04:15
Mostly Cloudy
68°F / 20°C 64°F / 18°C 88% 29.71 in
(1006 mb)
SSW 12.7 mph
(SSW 20 kph)
- 7SM
03:55
Overcast
68°F / 20°C 66°F / 19°C 94% 29.71 in
(1006 mb)
SSW 9.2 mph
(SSW 15 kph)
- 7SM
03:35
Mostly Cloudy
64°F / 18°C 63°F / 17°C 94% 29.71 in
(1006 mb)
SSW 8.1 mph
(SSW 13 kph)
- 10SM
03:15
Overcast
Light Rain
66°F / 19°C 61°F / 16°C 83% 29.74 in
(1007 mb)
WNW 17.3 mph
(WNW 28 kph)
- 10SM
02:55
Overcast
68°F / 20°C 68°F / 20°C 100% 29.74 in
(1007 mb)
SSW 16.1 mph
(SSW 26 kph)
- 7SM
02:35
Overcast
68°F / 20°C 68°F / 20°C 100% 29.71 in
(1006 mb)
SSW 11.5 mph
(SSW 19 kph)
- 7SM
02:15
Overcast
68°F / 20°C 68°F / 20°C 100% 29.74 in
(1007 mb)
SSW 10.4 mph
(SSW 17 kph)
- 7SM
01:55
Overcast
68°F / 20°C 66°F / 19°C 94% 29.74 in
(1007 mb)
SW 5.8 mph
(SW 9 kph)
- 7SM
01:35
Overcast
66°F / 19°C 66°F / 19°C 100% 29.74 in
(1007 mb)
SW 8.1 mph
(SW 13 kph)
- 7SM
01:15
Overcast
68°F / 20°C 66°F / 19°C 94% 29.74 in
(1007 mb)
SW 4.6 mph
(SW 7 kph)
- 7SM
00:55
Overcast
68°F / 20°C 66°F / 19°C 94% 29.77 in
(1008 mb)
SW 5.8 mph
(SW 9 kph)
- 7SM
00:35
Overcast
66°F / 19°C 66°F / 19°C 100% 29.77 in
(1008 mb)
SW 4.6 mph
(SW 7 kph)
- 7SM
00:15
Overcast
66°F / 19°C 64°F / 18°C 94% 29.8 in
(1009 mb)
SW 4.6 mph
(SW 7 kph)
- 10SM
Time Weather Temperature Dewpoint Humidity Pressure Winds Precip Visibility


Weather for websites

WeatherForYou.com, LLC is not responsible for any damages or problems caused by this service. Current weather conditions are obtained from the closest station including government and personal stations which may have varying degrees of accuracy. Weather forecasts are derived from the NOAA NDFD. Like all things, this site belongs to Jesus Christ... He just trusts me to maintain it. If you have any questions or comments email webmaster@weatherforyou.com

Copyright © 2014, WeatherForYou.com LLC. All rights reserved.